DW5856 Weather Reports


Display with metric or nautical units.
time (UTC)temp
F
wind
direction
speed
MPH
gust
MPH
rain 1hr
in
rain 24hr
in
rain mn
in
humidity
%
barometer
mb
20260509164553 72 20 12.0 18.0 0.00 0.00 0.00 25 1004.1
20260509163055 72 5 2.0 14.0 0.00 0.00 0.00 24 1004.3
20260509161550 72 37 8.0 16.0 0.00 0.00 0.00 25 1004.3
20260509160047 71 34 11.0 16.0 0.00 0.00 0.00 28 1004.4
20260509154546 71 355 7.0 18.0 0.00 0.00 0.00 24 1004.4
20260509153054 70 339 11.0 21.0 0.00 0.00 0.00 27 1004.3
20260509151541 70 349 10.0 15.0 0.00 0.00 0.00 28 1004.5
20260509150040 69 18 10.0 15.0 0.00 0.00 0.00 32 1004.6
20260509144539 68 9 10.0 17.0 0.00 0.00 0.00 28 1004.7
20260509143036 68 336 10.0 19.0 0.00 0.00 0.00 32 1004.8
20260509141533 67 360 13.0 21.0 0.00 0.00 0.00 32 1004.7
20260509140029 66 316 14.0 20.0 0.00 0.00 0.00 32 1004.9
20260509134526 65 314 14.0 17.0 0.00 0.00 0.00 34 1004.9
20260509133020 62 313 10.0 14.0 0.00 0.00 0.00 38 1004.9
20260509131519 56 5 3.0 7.0 0.00 0.00 0.00 48 1005.0
20260509130030 59 17 8.0 13.0 0.00 0.00 0.00 39 1004.9
20260509124520 60 313 12.0 15.0 0.00 0.00 0.00 37 1004.6
20260509123018 61 329 10.0 18.0 0.00 0.00 0.00 37 1004.5
20260509121518 57 309 11.0 15.0 0.00 0.00 0.00 41 1004.2
20260509120010 53 73 1.0 7.0 0.00 0.01 0.00 57 1004.2
20260509114510 57 87 2.0 10.0 0.00 0.01 0.00 49 1004.3
20260509113006 54 300 3.0 9.0 0.00 0.01 0.00 50 1004.0
20260509111504 53 236 4.0 7.0 0.00 0.01 0.00 51 1003.8
20260509110002 53 276 5.0 8.0 0.00 0.01 0.00 53 1003.7
20260509104505 52 254 2.0 6.0 0.00 0.01 0.00 55 1003.7
20260509103104 52 245 3.0 7.0 0.00 0.01 0.00 57 1003.7
20260509101618 53 211 4.0 8.0 0.00 0.01 0.00 57 1003.8
20260509094604 50 190 0.0 5.0 0.00 0.01 0.00 67 1003.8
20260509093055 50 334 0.0 3.0 0.00 0.01 0.00 65 1003.7
20260509091601 51 300 3.0 7.0 0.00 0.01 0.00 67 1003.5
20260509090100 50 256 1.0 3.0 0.00 0.01 0.00 68 1003.6
20260509084555 50 227 2.0 5.0 0.00 0.01 0.00 69 1003.7
20260509083057 50 275 0.0 4.0 0.00 0.01 0.00 70 1003.5
20260509081547 51 314 1.0 5.0 0.00 0.01 0.00 70 1003.7
20260509080047 51 5 2.0 4.0 0.00 0.01 0.00 67 1003.7
20260509074545 51 5 0.0 0.0 0.00 0.01 0.00 68 1003.9
20260509073039 53 11 2.0 4.0 0.00 0.01 0.00 67 1004.1
20260509071542 54 282 0.0 3.0 0.00 0.01 0.00 64 1004.1
20260509070032 55 282 1.0 3.0 0.00 0.01 0.00 65 1004.4
20260509064528 56 282 2.0 6.0 0.00 0.01 0.00 57 1004.3
20260509063025 57 263 3.0 9.0 0.00 0.01 0.00 56 1004.3
20260509061524 57 198 3.0 7.0 0.00 0.01 0.00 56 1004.5
20260509060021 57 197 1.0 4.0 0.00 0.01 0.01 55 1004.8
20260509054518 58 179 3.0 5.0 0.00 0.01 0.01 53 1005.1
20260509053019 58 194 4.0 6.0 0.00 0.01 0.01 53 1005.2
20260509051517 59 233 2.0 0.0 0.00 0.00 0.01 53 1005.4
20260509050021 59 234 2.0 6.0 0.00 0.01 0.01 53 1005.6
20260509044519 58 235 1.0 5.0 0.00 0.01 0.01 53 1005.7
20260509043016 58 213 6.0 8.0 0.00 0.01 0.01 54 1005.7
20260509041516 58 239 2.0 7.0 0.00 0.01 0.01 54 1005.8
20260509040026 58 194 2.0 6.0 0.00 0.01 0.01 53 1005.7
20260509034517 59 225 2.0 7.0 0.00 0.01 0.01 52 1005.6
20260509033014 59 199 2.0 5.0 0.00 0.01 0.01 53 1005.5
20260509031513 58 212 5.0 7.0 0.00 0.01 0.01 54 1005.5
20260509030023 59 176 3.0 5.0 0.00 0.01 0.01 54 1005.5
20260509024514 60 176 3.0 6.0 0.00 0.01 0.01 54 1005.4
20260509023012 61 145 2.0 4.0 0.00 0.01 0.01 50 1005.3
20260509021512 62 145 2.0 4.0 0.00 0.01 0.01 46 1005.1
20260509020011 64 145 2.0 5.0 0.00 0.01 0.01 44 1005.1
20260509014510 65 145 3.0 5.0 0.00 0.01 0.01 43 1005.0
20260509013008 66 146 2.0 6.0 0.00 0.01 0.01 39 1004.8
20260509011509 67 152 2.0 6.0 0.00 0.01 0.01 38 1004.9
20260509010008 68 165 3.0 7.0 0.00 0.01 0.01 37 1004.9
20260509004507 70 145 1.0 8.0 0.00 0.01 0.01 36 1004.7
20260509003009 70 121 3.0 10.0 0.00 0.01 0.01 35 1004.9
20260509001505 70 119 1.0 6.0 0.00 0.01 0.01 34 1004.9
20260509000003 71 119 2.0 7.0 0.00 0.01 0.01 35 1005.0
20260508234501 70 119 3.0 6.0 0.00 0.01 0.01 35 1005.0
20260508233100 71 144 5.0 11.0 0.00 0.01 0.01 35 1005.0
20260508231558 70 99 2.0 12.0 0.00 0.01 0.01 35 1005.0
20260508230056 70 157 3.0 9.0 0.00 0.01 0.01 35 1005.1
20260508224633 70 130 1.0 15.0 0.00 0.01 0.01 35 1005.1
20260508223055 71 129 1.0 5.0 0.00 0.01 0.01 33 1005.2
20260508221551 72 97 1.0 6.0 0.00 0.01 0.01 34 1005.4
20260508220053 72 278 2.0 5.0 0.00 0.01 0.01 34 1005.6
20260508214547 72 109 3.0 8.0 0.00 0.01 0.01 35 1005.7
20260508213044 72 129 2.0 5.0 0.00 0.01 0.01 34 1005.8
20260508211543 71 123 1.0 13.0 0.00 0.01 0.01 36 1006.0
20260508210044 70 151 3.0 12.0 0.00 0.01 0.01 35 1006.2
20260508204538 70 32 2.0 10.0 0.00 0.01 0.01 38 1006.3
20260508203041 69 105 2.0 7.0 0.00 0.01 0.01 38 1006.3
20260508201533 69 112 1.0 9.0 0.00 0.01 0.01 39 1006.6
20260508200034 68 123 1.0 9.0 0.00 0.01 0.01 41 1006.8
20260508194535 69 122 5.0 10.0 0.00 0.01 0.01 43 1006.8
20260508193025 70 130 4.0 6.0 0.00 0.01 0.01 39 1007.1
20260508191525 69 186 2.0 10.0 0.00 0.01 0.01 44 1007.4
20260508190022 68 119 1.0 4.0 0.00 0.01 0.01 43 1007.6
20260508184521 66 307 3.0 8.0 0.00 0.01 0.01 44 1007.8
20260508183025 66 5 1.0 5.0 0.00 0.01 0.01 45 1007.9
20260508181515 65 254 1.0 4.0 0.00 0.01 0.01 47 1008.1
20260508180011 63 12 1.0 6.0 0.00 0.01 0.01 47 1008.5
20260508174507 63 229 2.0 5.0 0.00 0.01 0.01 49 1008.7
20260508173007 62 212 2.0 5.0 0.00 0.01 0.01 50 1009.0
20260508171509 63 199 2.0 6.0 0.00 0.01 0.01 51 1009.1
20260508170100 61 240 2.0 6.0 0.00 0.01 0.01 53 1009.3